Monroe, MI

7:53 PM EST on February 19, 2017 (GMT -0500)
Custer

Weather History for KTTF - October, 2013

Change the Weather History Date:

Thursday, October 17, 2013

  Actual Average Record
Temperature  
Mean Temperature 50 °F -  
Max Temperature 55 °F 60 °F 89 °F (1938)
Min Temperature 44 °F 41 °F 25 °F (1977)
Degree Days  
Heating Degree Days 16    
Moisture  
Dew Point 48 °F    
Average Humidity 89    
Maximum Humidity 100    
Minimum Humidity 72    
Precipitation  
Precipitation 0.00 in - - ()
Sea Level Pressure  
Sea Level Pressure 29.84 in    
Wind  
Wind Speed 6 mph (SW)    
Max Wind Speed 15 mph    
Max Gust Speed 22 mph    
Visibility 9 miles    
Events Rain    
Averages and records for this station are not official NWS values.
T = Trace of Precipitation, MM = Missing Value Source: NWS Daily Summary

Daily Weather History Graph

Daily Weather History Graph

Search for Another Location

Airport or City:

Trip Planner

Search our weather history database for the weather conditions in past years. The results will help you decide how hot, cold, wet, or windy it might be!

Date:

Astronomy

Oct. 17, 2013 Rise Set
Actual Time 7:48 AM EDT 6:48 PM EDT
Civil Twilight 7:20 AM EDT 7:16 PM EDT
Nautical Twilight 6:48 AM EDT 7:49 PM EDT
Astronomical Twilight 6:15 AM EDT 8:21 PM EDT
Moon 6:02 PM EDT (10/17) 6:18 AM EDT (10/17)
Length of Visible Light 11h 56m
Length of Day
10h 59m
Waxing Gibbous, 98% of the Moon is Illuminated
Oct 17
Waxing Gibbous
Oct 18
Full
Oct 26
Last Quarter
Nov 3
New
Nov 10
First Quarter

Hourly Weather History & Observations

Time (EDT) Temp. Windchill Dew Point Humidity Pressure Visibility Wind Dir Wind Speed Gust Speed Precip Events Conditions
12:14 AM 55.4 °F - 46.4 °F 72% 29.90 in 10.0 mi West 6.9 mph - N/A   Overcast
12:34 AM 55.4 °F - 46.4 °F 72% 29.90 in 10.0 mi West 6.9 mph - N/A   Overcast
12:54 AM 53.6 °F - 48.2 °F 82% 29.90 in 10.0 mi West 5.8 mph - N/A   Overcast
1:14 AM 53.6 °F - 48.2 °F 82% 29.90 in 10.0 mi West 5.8 mph - N/A   Overcast
1:34 AM 53.6 °F - 46.4 °F 77% 29.91 in 10.0 mi WSW 6.9 mph - N/A   Overcast
1:55 AM 53.6 °F - 48.2 °F 82% 29.90 in 10.0 mi WSW 5.8 mph - N/A   Overcast
2:15 AM 53.6 °F - 48.2 °F 82% 29.90 in 10.0 mi WSW 5.8 mph - N/A   Overcast
2:35 AM 53.6 °F - 48.2 °F 82% 29.90 in 10.0 mi West 4.6 mph - N/A   Overcast
2:55 AM 53.6 °F - 46.4 °F 77% 29.89 in 10.0 mi WSW 3.5 mph - N/A   Overcast
3:15 AM 50.0 °F - 46.4 °F 87% 29.89 in 10.0 mi WSW 4.6 mph - N/A   Scattered Clouds
3:35 AM 50.0 °F - 46.4 °F 87% 29.89 in 10.0 mi SW 4.6 mph - N/A   Clear
3:55 AM 48.2 °F - 46.4 °F 93% 29.89 in 10.0 mi WSW 3.5 mph - N/A   Clear
4:16 AM 48.2 °F - 44.6 °F 87% 29.89 in 10.0 mi SW 3.5 mph - N/A   Clear
4:36 AM 48.2 °F - 46.4 °F 93% 29.88 in 10.0 mi SW 3.5 mph - N/A   Clear
4:56 AM 48.2 °F - 46.4 °F 93% 29.88 in 10.0 mi SSW 3.5 mph - N/A   Mostly Cloudy
5:16 AM 48.2 °F - 46.4 °F 93% 29.88 in 10.0 mi Calm Calm - N/A   Mostly Cloudy
5:36 AM 46.4 °F - 44.6 °F 93% 29.88 in 10.0 mi Calm Calm - N/A   Mostly Cloudy
5:56 AM 48.2 °F - 46.4 °F 93% 29.88 in 10.0 mi Calm Calm - N/A   Overcast
6:16 AM 48.2 °F - 46.4 °F 93% 29.88 in 10.0 mi Calm Calm - N/A   Overcast
6:36 AM 48.2 °F - 46.4 °F 93% 29.88 in 10.0 mi SSW 3.5 mph - N/A   Overcast
6:56 AM 46.4 °F - 44.6 °F 93% 29.88 in 10.0 mi Calm Calm - N/A   Scattered Clouds
7:17 AM 44.6 °F 43.1 °F 44.6 °F 100% 29.88 in 7.0 mi SSW 3.5 mph - N/A   Clear
7:32 AM 44.6 °F - 44.6 °F 100% 29.88 in 7.0 mi Calm Calm - N/A   Scattered Clouds
7:52 AM 44.6 °F - 44.6 °F 100% 29.88 in 7.0 mi Calm Calm - N/A   Scattered Clouds
8:12 AM 46.4 °F 45.2 °F 46.4 °F 100% 29.87 in 5.0 mi SSW 3.5 mph - N/A   Clear
8:32 AM 48.2 °F - 46.4 °F 93% 29.87 in 7.0 mi Calm Calm - N/A   Clear
8:52 AM 48.2 °F - 46.4 °F 93% 29.87 in 7.0 mi Calm Calm - N/A   Scattered Clouds
9:12 AM 48.2 °F - 46.4 °F 93% 29.87 in 7.0 mi Calm Calm - N/A   Clear
9:32 AM 50.0 °F - 46.4 °F 87% 29.88 in 5.0 mi SW 3.5 mph - N/A   Clear
9:52 AM 50.0 °F - 48.2 °F 94% 29.88 in 7.0 mi SW 4.6 mph - N/A   Clear
10:12 AM 51.8 °F - 48.2 °F 88% 29.88 in 10.0 mi SW 5.8 mph - N/A   Scattered Clouds
10:32 AM 51.8 °F - 48.2 °F 88% 29.87 in 7.0 mi WSW 4.6 mph - N/A   Mostly Cloudy
10:52 AM 51.8 °F - 48.2 °F 88% 29.87 in 10.0 mi Calm Calm - N/A   Mostly Cloudy
11:13 AM 51.8 °F - 48.2 °F 88% 29.85 in 10.0 mi Calm Calm - N/A   Mostly Cloudy
11:33 AM 53.6 °F - 48.2 °F 82% 29.87 in 7.0 mi SSW 4.6 mph - N/A Rain Light Rain
11:53 AM 53.6 °F - 48.2 °F 82% 29.85 in 10.0 mi Calm Calm - N/A   Mostly Cloudy
12:13 PM 53.6 °F - 48.2 °F 82% 29.84 in 10.0 mi Calm Calm - N/A   Scattered Clouds
12:33 PM 55.4 °F - 50.0 °F 82% 29.85 in 7.0 mi WSW 6.9 mph - N/A   Mostly Cloudy
12:53 PM 53.6 °F - 48.2 °F 82% 29.83 in 10.0 mi SW 6.9 mph - N/A   Mostly Cloudy
1:13 PM 53.6 °F - 51.8 °F 94% 29.81 in 5.0 mi SSW 3.5 mph - N/A Rain Light Rain
1:34 PM 53.6 °F - 51.8 °F 94% 29.82 in 7.0 mi SSW 6.9 mph - N/A   Light Drizzle
1:54 PM 53.6 °F - 51.8 °F 94% 29.82 in 4.0 mi SSW 5.8 mph - N/A Rain Light Rain
2:14 PM 53.6 °F - 51.8 °F 94% 29.80 in 4.0 mi SW 6.9 mph - N/A Rain Rain
2:34 PM 53.6 °F - 51.8 °F 94% 29.79 in 4.0 mi SW 6.9 mph - N/A Rain Light Rain
2:54 PM 53.6 °F - 50.0 °F 88% 29.79 in 7.0 mi SW 9.2 mph 16.1 mph N/A   Light Drizzle
3:14 PM 53.6 °F - 50.0 °F 88% 29.79 in 10.0 mi WSW 10.4 mph - N/A   Overcast
3:34 PM 51.8 °F - 50.0 °F 94% 29.79 in 5.0 mi WSW 10.4 mph - N/A   Light Drizzle
3:54 PM 53.6 °F - 51.8 °F 94% 29.78 in 5.0 mi WSW 8.1 mph - N/A Rain Light Rain
4:14 PM 53.6 °F - 50.0 °F 88% 29.78 in 10.0 mi SW 10.4 mph 18.4 mph N/A   Light Drizzle
4:34 PM 53.6 °F - 51.8 °F 94% 29.78 in 10.0 mi WSW 9.2 mph - N/A   Overcast
4:54 PM 53.6 °F - 50.0 °F 88% 29.77 in 10.0 mi SW 8.1 mph - N/A   Overcast
5:15 PM 53.6 °F - 50.0 °F 88% 29.77 in 10.0 mi SW 10.4 mph - N/A   Overcast
5:35 PM 53.6 °F - 50.0 °F 88% 29.77 in 10.0 mi SW 11.5 mph 18.4 mph N/A   Overcast
5:55 PM 53.6 °F - 50.0 °F 88% 29.77 in 10.0 mi SW 10.4 mph - N/A   Mostly Cloudy
6:15 PM 53.6 °F - 50.0 °F 88% 29.77 in 10.0 mi WSW 8.1 mph 16.1 mph N/A   Mostly Cloudy
6:35 PM 53.6 °F - 48.2 °F 82% 29.77 in 10.0 mi WSW 8.1 mph - N/A   Overcast
6:55 PM 51.8 °F - 48.2 °F 88% 29.77 in 10.0 mi SW 8.1 mph - N/A   Mostly Cloudy
7:15 PM 51.8 °F - 48.2 °F 88% 29.79 in 10.0 mi WSW 11.5 mph - N/A   Scattered Clouds
7:35 PM 51.8 °F - 48.2 °F 88% 29.79 in 10.0 mi WSW 12.7 mph - N/A   Mostly Cloudy
7:56 PM 51.8 °F - 48.2 °F 88% 29.80 in 10.0 mi SW 10.4 mph - N/A   Overcast
8:16 PM 51.8 °F - 48.2 °F 88% 29.80 in 10.0 mi SW 11.5 mph - N/A   Overcast
8:36 PM 51.8 °F - 48.2 °F 88% 29.80 in 10.0 mi WSW 15.0 mph 19.6 mph N/A   Overcast
8:56 PM 51.8 °F - 48.2 °F 88% 29.81 in 10.0 mi WSW 13.8 mph 21.9 mph N/A   Overcast
9:16 PM 51.8 °F - 48.2 °F 88% 29.81 in 10.0 mi WSW 15.0 mph 20.7 mph N/A   Mostly Cloudy
9:36 PM 51.8 °F - 48.2 °F 88% 29.82 in 10.0 mi WSW 12.7 mph 19.6 mph N/A   Mostly Cloudy
9:56 PM 51.8 °F - 48.2 °F 88% 29.83 in 10.0 mi WSW 12.7 mph 16.1 mph N/A   Mostly Cloudy
10:16 PM 51.8 °F - 48.2 °F 88% 29.84 in 10.0 mi WSW 10.4 mph - N/A   Scattered Clouds
10:37 PM 51.8 °F - 48.2 °F 88% 29.84 in 10.0 mi WSW 10.4 mph - N/A   Mostly Cloudy
10:52 PM 51.8 °F - 48.2 °F 88% 29.85 in 10.0 mi WSW 8.1 mph - N/A   Overcast
11:12 PM 51.8 °F - 48.2 °F 88% 29.85 in 10.0 mi WSW 10.4 mph - N/A   Overcast
11:32 PM 51.8 °F - 48.2 °F 88% 29.85 in 10.0 mi West 10.4 mph - N/A   Overcast
11:52 PM 51.8 °F - 48.2 °F 88% 29.85 in 10.0 mi WSW 9.2 mph - N/A   Overcast